Location: El Mouella
(16.4949°N, 9.1594°W)
Time: 14:20:49
(UTC+00:00)

Gbstr 26 Del rocket - Pass Details

Date: 02 June 2020
Orbit: 493 x 1264 km, 51.8° (Epoch: 04 July)

Event Time Altitude Azimuth Distance (km) Brightness Sun altitude
Rises 19:14:25 0° 323° (NW) 4,212 8.6 -2.6°
Reaches altitude 10° 19:17:21 10° 324° (NW) 3,229 7.9 -3.2°
Maximum altitude 19:25:26 86° 52° (NE) 1,182 4.5 -5.0°
Drops below altitude 10° 19:32:32 10° 142° (SE) 2,861 5.9 -6.5°
Enters shadow 19:33:57 - 142° (SE) 3,347 6.2 -6.8°
